Location: Tel Aviv
(32.0670°N, 34.7670°E)
Time: 01:40:43
(UTC+03:00)

AO-7 - Pass Details

Date: 25 September 2024
Orbit: 1440 x 1458 km, 102.0° (Epoch: 10 October)

Event Time Altitude Azimuth Distance (km) Brightness Sun altitude
Rises 04:40:17 0° 37° (NE) 4,562 ? -24.1°
Reaches altitude 10° 04:44:26 10° 56° (ENE) 3,576 ? -23.2°
Maximum altitude 04:49:31 17° 95° (E) 3,029 ? -22.2°
Drops below altitude 10° 04:54:33 10° 133° (SE) 3,558 ? -21.1°
Sets 04:58:36 0° 152° (SSE) 4,528 ? -20.3°
